This is the latest recevied weather packets stored in our database for station/object K3RUP-1. If no packets are shown the sender has not sent any weather packets the latest 10 day(s).
| Time | Temp. | Humidity | Pressure | Rain* | Wind** | Luminosity | Snow |
|---|---|---|---|---|---|---|---|
| 1788126328 | 28.33° C | 80% | 1017.6 hPa | 0 mm | - | 69 W/m² | - |
| 1788126027 | 28.33° C | 80% | 1017.5 hPa | 0 mm | - | 57 W/m² | - |
| 1788125722 | 28.33° C | 80% | 1017.6 hPa | 0 mm | - | 59 W/m² | - |
| 1788125418 | 28.33° C | 79% | 1017.2 hPa | 0 mm | - | 72 W/m² | - |
| 1788125114 | 28.89° C | 79% | 1017.7 hPa | 0 mm | - | 72 W/m² | - |
| 1788124809 | 28.89° C | 79% | 1017.3 hPa | 0 mm | - | 81 W/m² | - |
| 1788124503 | 28.89° C | 78% | 1017.6 hPa | 0 mm | - | 83 W/m² | - |
| 1788124198 | 28.89° C | 77% | 1017.5 hPa | 0 mm | - | 89 W/m² | - |
| 1788123898 | 29.44° C | 77% | 1017.4 hPa | 0 mm | - | 78 W/m² | - |
| 1788123596 | 30° C | 74% | 1017.6 hPa | 0 mm | - | 85 W/m² | - |
| 1788123295 | 30° C | 73% | 1017.6 hPa | 0 mm | - | 132 W/m² | - |
| 1788122990 | 30.56° C | 70% | 1017.9 hPa | 0 mm | - | 124 W/m² | - |
| 1788122689 | 30.56° C | 72% | 1017.6 hPa | 0 mm | - | 204 W/m² | - |
| 1788122384 | 30.56° C | 70% | 1017.7 hPa | 0 mm | - | 148 W/m² | - |
| 1788122081 | 30.56° C | 68% | 1017.5 hPa | 0 mm | - | 101 W/m² | - |
| 1788121780 | 30.56° C | 65% | 1017.7 hPa | 0 mm | - | 102 W/m² | - |
| 1788121475 | 31.11° C | 66% | 1017.5 hPa | 0 mm | - | 101 W/m² | - |
| 1788121171 | 30.56° C | 65% | 1017.7 hPa | 0 mm | - | 140 W/m² | - |
| 1788120864 | 30.56° C | 65% | 1017.6 hPa | 0 mm | - | 111 W/m² | - |
| 1788120560 | 30.56° C | 64% | 1017.5 hPa | 0 mm | - | 138 W/m² | - |
| 1788120259 | 30.56° C | 63% | 1017.6 hPa | 0 mm | - | 157 W/m² | - |
| 1788119949 | 30.56° C | 65% | 1017.7 hPa | 0 mm | - | 92 W/m² | - |
| 1788119649 | 30.56° C | 65% | 1017.7 hPa | 0 mm | - | 129 W/m² | - |
| 1788119347 | 30.56° C | 67% | 1018.1 hPa | 0 mm | - | 129 W/m² | - |
| 1788119047 | 30.56° C | 66% | 1017.8 hPa | 0 mm | - | 81 W/m² | - |
* Rain latest hour (hover to see other rain measurements)
** Current wind speed in m/s (hover to see current wind gust speed)